Location: La Hunaudi�re
(47.7141°N, 1.5338°W)
Time: 09:31:03
(UTC+00:00)

Daily predictions for brighter satellites

Satellite Brightness Start Highest point End
(mag) Time Altitude Azimuth Time Altitude Azimuth Time Altitude Azimuth
Cosmos 2278 Rocket 2.4 20:27:06 10° SSW 20:32:47 83° WNW 20:38:31 10° NNE
Cosmos 1741 Rocket 4.2 20:28:49 10° NNW 20:34:01 61° ENE 20:39:10 10° SE
Okean 2 Rocket 3.1 20:30:03 10° N 20:34:30 79° E 20:38:53 10° SSE
Resurs 01 Rocket 1.7 20:30:07 10° SSE 20:34:35 88° ENE 20:39:05 10° NNW
STARLINK-1111 4.1 20:31:11 10° WNW 20:35:18 58° NNE 20:39:23 10° E
STARLINK-1200 3.6 20:32:01 10° WSW 20:36:09 83° SSE 20:40:20 10° ENE
Meteor 1-12 Rocket 4.3 20:32:04 10° N 20:37:46 82° ENE 20:43:29 10° SSE
STARLINK-1078 4.0 20:33:58 10° WNW 20:38:01 54° SW 20:42:03 10° SE
MetOp-B 4.3 20:33:15 10° SSE 20:38:32 64° ENE 20:43:50 10° N
SL-8 R/B 3.7 20:35:24 10° W 20:40:13 90° SSW 20:45:03 10° ESE
STARLINK-1073 4.1 20:36:11 10° WNW 20:40:18 60° NNE 20:44:24 10° ESE
STARLINK-1192 3.6 20:37:01 10° WSW 20:41:09 88° SSE 20:45:19 10° ENE
Cosmos 2279 Rocket 4.0 20:36:14 10° N 20:42:30 75° E 20:48:43 10° SSE
STARLINK-1108 4.1 20:38:58 10° WNW 20:42:59 50° SW 20:46:59 10° SE
ATLAS CENTAUR R/B 3.9 20:42:51 10° NW 20:43:34 11° NNW 20:44:15 10° N
Cosmos 1850 Rocket 4.1 20:38:14 10° NNW 20:43:37 76° ENE 20:48:57 10° SSE
Cosmos 371 Rocket 3.3 20:40:03 10° SSW 20:44:53 78° ESE 20:49:47 10° NNE
SPOT 3 Rocket 4.3 20:40:06 10° S 20:45:06 51° W 20:50:10 10° NNW
STARLINK-1121 4.0 20:41:09 10° WNW 20:45:17 63° NNE 20:49:24 10° ESE
SL-4 R/B 4.1 20:44:15 10° SSE 20:46:02 12° SE 20:47:51 10° ESE
STARLINK-1244 3.7 20:41:58 10° WSW 20:46:08 87° NNW 20:50:17 10° ENE
STARLINK-1071 4.2 20:43:57 10° WNW 20:47:56 46° SW 20:51:54 10° SE
Terra 3.4 20:45:03 10° ESE 20:48:42 22° ENE 20:52:21 10° NNE
Abrixas rocket 1.9 20:45:53 10° W 20:48:50 69° SSW 20:51:46 10° ESE
Cosmos 2151 Rocket 3.6 20:44:41 10° N 20:49:16 79° E 20:53:47 10° SSE
Spot 2 Rocket 3.6 20:44:41 10° SSE 20:49:39 64° ENE 20:54:40 10° N
STARLINK-1106 3.9 20:46:09 10° WNW 20:50:18 66° NNE 20:54:26 10° ESE
ERBS 4.0 20:47:24 10° W 20:50:30 36° NNW 20:53:36 10° NE
SPOT 1/Viking Rocket 4.0 20:45:39 10° SE 20:50:35 48° ENE 20:55:32 10° N
STARLINK-1138 3.7 20:46:58 10° WSW 20:51:07 82° NNW 20:55:16 10° ENE
STARLINK-1110 4.3 20:47:45 10° WNW 20:51:42 43° SW 20:55:32 10° SSE
STARLINK-1112 3.8 20:51:06 10° WNW 20:55:15 70° NNE 20:59:24 10° ESE
STARLINK-1143 3.8 20:51:56 10° WSW 20:56:05 78° NNW 21:00:14 10° ENE
STARLINK-1124 4.5 20:53:58 10° WNW 20:57:51 39° SW 21:01:29 11° SSE
STARLINK-1128 3.8 20:56:05 10° WNW 21:00:14 74° NNE 21:04:23 10° ESE
STARLINK-1241 3.9 20:56:57 10° WSW 21:01:06 74° NNW 21:05:15 10° ENE
deb Kosmos-1763 4.1 21:00:18 10° NNW 21:03:53 66° ENE 21:06:57 13° SSE
Cosmos 1331 Rocket 4.5 20:59:09 10° S 21:03:55 40° ESE 21:08:45 10° NE
Cosmos 1300 Rocket 4.1 20:59:39 10° NNW 21:04:03 60° W 21:08:24 10° S
Aureole 2 Rocket 2.2 21:01:37 10° S 21:04:41 52° ESE 21:07:35 10° NNE
STARLINK-1113 3.7 21:01:04 10° WNW 21:05:14 78° NNE 21:09:15 11° ESE
STARLINK-1239 4.0 21:01:56 10° WSW 21:06:04 70° NNW 21:10:13 10° ENE
Cosmos 1437 Rocket 2.6 21:05:58 10° S 21:09:45 86° E 21:13:36 10° NNE
STARLINK-1119 3.7 21:06:04 10° WNW 21:10:14 82° NNE 21:14:04 12° ESE
STARLINK-1240 4.0 21:06:55 10° WSW 21:11:03 67° NNW 21:15:11 10° ENE
Cosmos 1378 4.0 21:09:41 14° SSE 21:12:24 32° E 21:15:45 10° NNE
ISS -1.8 21:12:20 10° W 21:14:51 20° SW 21:17:02 12° S
STARLINK-1114 3.6 21:11:01 10° WNW 21:15:12 87° NNE 21:18:49 13° ESE
STARLINK-1203 4.2 21:11:45 10° WSW 21:15:56 64° NNW 21:20:07 10° ENE
STARLINK-1216 4.1 21:11:54 10° WSW 21:16:01 63° NNW 21:20:09 10° ENE
Cosmos 304 Rocket 3.7 21:11:32 10° SSW 21:16:17 74° ESE 21:21:06 10° NNE
Meteor 1-15 Rocket 4.4 21:10:19 10° N 21:16:18 83° E 21:21:57 11° SSE
USA 215 4.5 21:11:33 10° ENE 21:17:35 41° N 21:23:36 10° WNW
Lacrosse 5 3.2 21:13:34 10° WNW 21:17:54 29° SW 21:22:07 10° S
STARLINK-1130 (DARKSAT) 3.6 21:16:01 10° WNW 21:20:11 88° SSW 21:23:37 15° ESE
Cosmos 1092 Rocket 4.5 21:15:30 12° SSE 21:20:42 42° E 21:26:25 10° NNE
NOSS 2-2 (D) 3.4 21:17:26 10° SSW 21:20:52 45° ESE 21:24:38 10° NE
STARLINK-1237 4.2 21:16:55 10° WSW 21:21:01 60° NNW 21:25:08 10° ENE
CENTAUR R/B 3.8 21:14:48 10° NW 21:22:21 50° NE 21:30:44 10° ESE
CZ-2C R/B 4.4 21:18:30 10° N 21:23:36 37° WNW 21:28:40 10° SW
Cosmos 1674 Rocket 3.7 21:20:34 10° SSW 21:24:55 80° W 21:29:23 10° N
STARLINK-1084 3.6 21:21:00 10° WNW 21:25:10 84° SSW 21:28:24 16° ESE
ATLAS 3B R/B 4.2 21:19:26 10° NNW 21:25:16 30° NNE 21:31:15 10° E
STARLINK-1202 4.3 21:21:55 10° W 21:26:01 58° NNW 21:30:07 10° ENE
SL-27 R/B 3.9 21:24:09 10° N 21:27:15 26° ENE 21:29:28 15° ESE
Cosmos 1378 Rocket 3.5 21:23:24 10° S 21:27:48 85° E 21:32:13 10° N
STARLINK-1098 3.6 21:25:59 10° WNW 21:30:08 79° SSW 21:33:11 18° SE
Cosmos 1766 3.7 21:26:15 10° N 21:30:10 50° ENE 21:32:47 19° SSE
STARLINK-1123 3.6 21:30:57 10° WNW 21:35:06 74° SSW 21:37:57 19° SE
IGS 5A 4.0 21:31:57 12° S 21:35:45 54° W 21:39:52 10° NNW
STARLINK-1246 4.5 21:31:57 10° W 21:36:01 53° NNW 21:40:06 10° ENE
Cosmos 1943 Rocket 2.5 21:31:51 10° S 21:37:06 46° ESE 21:42:26 10° NE
Cosmos 2297 3.8 21:31:29 10° SSW 21:37:10 86° WNW 21:42:57 10° NNE
Cosmos 1900 4.4 21:32:17 10° NW 21:37:21 82° NE 21:41:01 19° SE
NOSS 2-2 (E) 3.1 21:34:31 10° SW 21:38:06 86° SE 21:42:13 10° NE
STARLINK-1097 3.6 21:35:58 10° WNW 21:40:06 69° SSW 21:42:45 21° SE
Landsat 7 4.4 21:36:41 11° S 21:41:08 52° W 21:45:49 10° NNW
Cosmos 2082 Rocket 3.6 21:37:31 10° NW 21:42:27 31° WSW 21:47:21 10° SSW
SeaSat 1 4.1 21:40:59 10° ENE 21:43:45 15° ESE 21:44:34 14° ESE
SAR-Lupe-2 4.5 21:41:27 10° N 21:44:58 49° WNW 21:48:26 10° SSW
STARLINK-1099 3.7 21:40:57 10° WNW 21:45:04 64° SSW 21:47:31 23° SE
Cosmos 1461 3.8 21:41:11 10° SW 21:45:16 53° NW 21:49:37 10° NNE
Cosmos 1975 Rocket 3.4 21:44:36 20° SSE 21:47:21 48° E 21:51:37 10° NNE
STARLINK-1212 4.3 21:44:44 10° WNW 21:47:40 36° NNE 21:50:34 10° E
STARLINK-1105 4.3 21:45:13 10° WNW 21:48:07 36° NNE 21:51:02 10° E
Meteor 1-23 Rocket 4.5 21:42:46 10° SSW 21:48:26 71° WNW 21:54:05 10° N
STARLINK-1247 4.3 21:46:05 10° WNW 21:49:01 36° NNE 21:51:57 10° E
STARLINK-1227 4.3 21:46:35 10° WNW 21:49:30 36° NNE 21:52:25 10° E
BREEZE-M DEB (TANK) 4.0 21:31:03 10° WSW 21:49:47 74° SSE 21:54:12 10° ENE
STARLINK-1104 3.8 21:45:55 10° WNW 21:50:01 59° SSW 21:52:18 24° SE
STARLINK-1226 4.3 21:47:27 10° WNW 21:50:23 36° NNE 21:53:18 10° E
BREEZE-M DEB (TANK) 3.3 21:46:20 10° W 21:50:56 69° N 21:54:27 10° E
STARLINK-1215 4.3 21:48:20 10° WNW 21:51:17 37° NNE 21:54:13 10° E
STARLINK-1217 4.2 21:50:09 10° WNW 21:53:06 37° NNE 21:56:00 10° E
Cosmos 2369 Rocket 2.5 21:49:04 16° S 21:53:18 45° ESE 21:58:39 10° NE
STARLINK-1229 4.2 21:51:04 10° WNW 21:54:01 38° NNE 21:56:54 10° E
STARLINK-1270 4.2 21:51:57 10° WNW 21:54:55 38° NNE 21:57:45 11° E
STARLINK-1144 3.8 21:50:55 10° WNW 21:54:59 55° SW 21:57:05 26° SSE
STARLINK-1189 4.2 21:53:45 10° WNW 21:56:43 38° NNE 21:59:29 11° E
SPOT 5 3.2 21:53:31 18° S 21:57:29 73° WSW 22:02:52 10° NNW
STARLINK-1188 4.2 21:54:39 10° WNW 21:57:38 39° NNE 22:00:22 12° E
STARLINK-1187 4.0 21:55:46 10° WNW 21:58:44 41° NNE 22:01:14 13° E
ATLAS CENTAUR R/B 3.3 21:59:35 15° ESE 21:59:35 15° ESE 22:01:31 10° ENE
STARLINK-1103 3.9 21:55:54 10° WNW 21:59:56 51° SW 22:01:51 27° SSE
STARLINK-1191 4.1 21:57:06 10° WNW 22:00:04 39° NNE 22:02:39 12° E
STARLINK-1221 4.1 21:58:03 10° WNW 22:01:01 40° NNE 22:03:35 13° E
STARLINK-1222 4.1 21:58:54 10° WNW 22:01:52 40° NNE 22:04:23 13° E
NOSS 2-2 (C) 3.4 21:59:11 10° SW 22:02:44 70° NW 22:06:48 10° NE
STARLINK-1214 4.1 21:59:48 10° WNW 22:02:46 40° NNE 22:05:16 13° E
ERS-1 Rocket 3.5 21:59:40 17° S 22:03:30 55° W 22:08:27 10° NNW
EXPRESS MD2 3.7 22:00:18 10° WSW 22:03:49 89° NNW 22:10:57 10° ENE
Cosmos 1025 Rocket 4.3 22:02:58 21° ESE 22:04:22 25° E 22:07:55 10° NNE
Okean 2 3.3 22:02:00 21° S 22:04:40 82° E 22:08:52 10° N
STARLINK-1101 4.0 22:00:54 10° WNW 22:04:53 47° SW 22:06:38 29° SSE
Cosmos 2026 Rocket 4.1 22:00:23 19° S 22:05:03 67° E 22:11:22 10° NNE
Meteor 1-22 Rocket 4.3 21:59:14 10° NNW 22:05:10 84° W 22:09:05 21° S
ATLAS 2AS CENTAUR R/B 3.5 22:00:30 16° S 22:06:25 41° ESE 22:13:42 10° NE
BREEZE M DEB (TANK) 2.1 22:02:11 10° WSW 22:06:30 89° NW 22:08:33 11° ENE
Cosmos 1553 Rocket 4.4 22:01:48 10° N 22:07:56 51° ENE 22:11:43 23° SE
BREEZE-M DEB (TANK) 4.4 21:50:58 10° WNW 22:08:11 88° SSW 22:11:56 16° ESE
STARLINK-1228 3.8 22:05:13 10° WNW 22:08:40 54° NNE 22:11:08 17° E
Cosmos 1953 4.1 22:05:57 10° NNE 22:09:04 21° ENE 22:10:41 17° ESE
NOSS 3-2 (A) 4.1 22:01:46 10° NW 22:09:15 77° SW 22:15:11 22° SSE
STARLINK-1102 4.1 22:05:55 10° WNW 22:09:52 44° SW 22:11:26 29° SSE
Cosmos 1805 4.0 22:06:12 10° NNW 22:10:00 48° W 22:12:24 20° SSW
Cosmos 1470 3.3 22:06:37 10° N 22:10:21 43° ENE 22:11:51 29° SE
STARLINK-1235 3.7 22:07:57 10° WNW 22:11:08 51° NNE 22:13:11 19° E
Okean 1 Rocket 4.5 22:07:30 10° NNW 22:11:31 33° W 22:15:06 12° SSW
Resurs 01 Rocket 4.4 22:10:34 10° WSW 22:11:43 11° W 22:12:53 10° WNW
Cosmos 968 Rocket 3.7 22:09:32 10° NNW 22:14:40 61° ENE 22:17:31 25° SE
STARLINK-1111 4.2 22:10:55 10° WNW 22:14:48 40° SW 22:16:12 30° S
Cosmos 1455 Rocket 3.0 22:12:55 10° N 22:17:17 87° ENE 22:19:25 30° S
STARLINK-1073 4.3 22:15:56 10° WNW 22:19:46 37° SW 22:20:59 30° S
ATLAS 5 CENTAUR R/B 2.8 22:21:46 26° ESE 22:21:46 26° ESE 22:23:29 10° ENE
USA 238 DEB 4.0 22:13:59 10° NW 22:21:08 67° SW 22:25:51 24° SSE
USA 238 4.0 22:14:05 10° NW 22:21:14 68° SW 22:25:58 24° SSE
SL-8 R/B 4.3 22:18:03 10° W 22:22:33 40° SSW 22:24:13 30° SSE
Cosmos 1758 3.6 22:19:52 10° N 22:23:53 55° ENE 22:25:25 33° SE
Abrixas rocket 4.0 22:21:55 10° W 22:23:18 16° SW 22:23:18 16° SW
STARLINK-1121 4.5 22:20:56 10° WNW 22:24:43 35° SW 22:25:46 30° S
SL-4 R/B 2.5 22:20:17 10° SW 22:24:54 50° SE 22:29:35 10° ENE
Terra 2.3 22:23:15 22° SSW 22:26:06 52° W 22:30:47 10° NNW
Cosmos 1842 3.3 22:24:08 26° SSW 22:26:13 75° W 22:30:07 10° N
Meteor 2-13 Rocket 4.4 22:23:30 21° S 22:27:51 85° E 22:34:03 10° N
STARLINK-1234 3.2 22:25:42 10° WNW 22:28:58 67° NNE 22:30:17 32° E
Cosmos 1503 Rocket 4.2 22:29:31 10° NNW 22:34:50 66° ENE 22:37:35 29° SE
STARLINK-1209 3.0 22:31:51 10° WNW 22:35:10 77° NNE 22:36:13 40° ESE
Cosmos 2263 4.1 22:39:18 21° SSW 22:43:05 78° ESE 22:48:44 10° NNE
Cosmos 1536 Rocket 3.6 22:45:43 38° SSE 22:47:09 61° E 22:51:28 10° NNE
Cosmos 1674 4.3 22:48:20 20° E 22:48:42 20° E 22:51:31 10° NE
Cosmos 1271 Rocket 2.6 22:49:29 41° SSW 22:50:46 88° W 22:54:44 10° N
Cosmos 1242 Rocket 3.0 22:49:25 32° SW 22:50:54 58° WNW 22:54:34 10° N
STARLINK-60 2.8 22:52:21 33° WSW 22:53:36 88° SSE 22:56:49 10° ENE
Meteor 1-21 4.4 22:50:09 22° SSW 22:53:54 70° WNW 22:59:31 10° N
Cosmos 1544 Rocket 4.0 22:49:48 10° NNW 22:54:02 54° W 22:55:47 32° SSW
Cosmos 1354 Rocket 4.0 22:48:50 10° NNW 22:54:11 84° ENE 22:56:35 34° SSE
STARLINK-1206 4.5 22:50:12 10° WNW 22:54:15 50° NNE 22:58:17 10° E
COSMOS 2455 3.2 22:52:50 31° SSE 22:55:15 47° ESE 23:01:00 10° NE
Spot 4 3.8 22:53:29 35° SSE 22:55:31 81° ENE 23:00:25 10° NNW
Cosmos 1833 4.2 22:52:57 10° NNW 22:58:36 77° WSW 23:01:10 34° SSE
STARLINK-1205 4.4 22:55:10 10° WNW 22:59:14 52° NNE 23:03:07 11° E
USA 215 3.6 22:53:33 10° ESE 23:00:03 67° NNE 23:06:32 10° NW
Cosmos 1707 2.7 22:59:44 45° SSW 23:00:51 85° W 23:04:46 10° N
Cosmos 2297 Rocket 4.3 22:56:39 10° N 23:00:51 21° NE 23:05:02 10° E
SL-27 R/B 4.1 22:59:20 10° NW 23:02:16 24° WSW 23:03:01 22° WSW
Helios 1A 4.5 23:01:35 21° ESE 23:03:20 28° ENE 23:06:54 10° N
STARLINK-1218 4.3 23:00:10 10° WNW 23:04:14 54° NNE 23:07:55 12° E
Cosmos 1174 3.8 23:06:36 46° ESE 23:06:36 46° ESE 23:09:52 10° NE
Cosmos 1726 2.1 23:02:53 10° N 23:06:37 76° E 23:07:20 55° SSE
STARLINK-1254 4.2 23:05:08 10° WNW 23:09:14 56° NNE 23:12:41 14° E
ALOS 2 3.0 23:07:47 36° SE 23:09:18 56° ENE 23:13:37 10° N
COSMOS 2487 2.3 23:06:37 10° NNW 23:10:06 75° ENE 23:10:32 62° SE
CENTAUR R/B 3.4 23:05:33 10° NW 23:13:29 61° WSW 23:18:17 28° S
STARLINK-1231 4.1 23:10:06 10° WNW 23:14:13 58° NNE 23:17:27 16° E
Meteor 1-16 Rocket 4.1 23:10:01 10° N 23:15:35 82° ENE 23:17:49 37° SSE
Cosmos 1867 3.6 23:11:16 10° NW 23:16:42 66° WSW 23:18:45 38° SSE
ATLAS 3B R/B 2.7 23:10:03 10° NW 23:16:53 85° NE 23:21:09 26° SE
EO 1 Del DPAF 3.6 23:14:32 10° N 23:18:16 57° WNW 23:19:30 37° SW
FALCON 9 DEB 4.5 23:20:07 28° E 23:20:07 28° E 23:22:00 10° ENE
NOSS 3-2 (C) 4.5 23:11:34 10° NW 23:18:51 50° WSW 23:23:02 28° S
STARLINK-1232 4.1 23:15:06 10° WNW 23:19:14 61° NNE 23:22:15 17° E
Cosmos 1992 Rocket 4.2 23:16:14 25° SW 23:19:17 69° WNW 23:24:30 10° NNE
Cosmos 1606 Rocket 4.0 23:16:07 10° N 23:20:20 49° ENE 23:21:36 36° SE
Cosmos 1943 Rocket 3.7 23:16:00 10° WSW 23:21:01 34° NW 23:26:06 10° NNE
SeaSat 1 2.4 23:16:53 10° NNE 23:21:51 88° NW 23:24:20 30° SSW
STARLINK-29 3.2 23:24:02 58° ENE 23:24:02 58° ENE 23:26:43 10° ENE
STARLINK-1212 3.5 23:20:33 10° WNW 23:22:54 44° W 23:22:54 44° W
STARLINK-1105 3.6 23:21:01 10° WNW 23:23:20 43° W 23:23:20 43° W
STARLINK-1208 4.0 23:20:04 10° WNW 23:24:12 64° NNE 23:27:00 20° E
NOSS 5 (C) 4.5 23:21:43 10° NW 23:24:53 76° NE 23:25:33 55° ESE
STARLINK-1247 3.6 23:21:53 10° WNW 23:24:14 43° W 23:24:14 43° W
STARLINK-1227 3.7 23:22:23 10° WNW 23:24:40 41° W 23:24:40 41° W
STARLINK-1226 3.7 23:23:14 10° WNW 23:25:31 41° W 23:25:31 41° W
ATLAS CENTAUR R/B 3.4 23:25:22 10° NNW 23:26:58 18° NNE 23:29:14 10° E
STARLINK-1215 3.7 23:24:08 10° WNW 23:26:24 40° W 23:26:24 40° W
NOSS 3-4 (A) 3.4 23:23:52 17° SW 23:28:39 83° NW 23:35:04 10° NE
NOSS 3-4 (C) 3.4 23:24:01 17° SW 23:28:44 84° NW 23:35:11 10° NE
STARLINK-1217 3.8 23:25:57 10° WNW 23:28:07 37° W 23:28:07 37° W
STARLINK-1271 3.9 23:25:04 10° WNW 23:29:12 67° NNE 23:31:48 22° ESE
STARLINK-1229 3.9 23:26:52 10° WNW 23:29:01 37° W 23:29:01 37° W
RESURS DK-1 2.9 23:29:48 39° ESE 23:30:00 39° ESE 23:33:53 10° NE
STARLINK-1270 3.9 23:27:46 10° WNW 23:29:53 36° W 23:29:53 36° W
STARLINK-1189 4.0 23:29:34 10° WNW 23:31:36 34° W 23:31:36 34° W
Meteor 2-10 4.4 23:28:00 10° NNW 23:32:54 51° W 23:34:44 34° SSW
STARLINK-1188 4.1 23:30:29 10° WNW 23:32:29 33° W 23:32:29 33° W
Cosmos 2084 4.1 23:33:36 39° SE 23:33:45 39° ESE 23:37:55 10° NE
Cosmos 2315 Rocket 4.0 23:27:52 10° N 23:34:06 81° E 23:36:59 34° SSE
STARLINK-1154 3.8 23:30:03 10° WNW 23:34:12 71° NNE 23:36:35 24° ESE
BREEZE-M R/B 4.3 23:31:45 28° SSW 23:34:31 39° SSE 23:38:39 10° E
STARLINK-1187 4.4 23:31:38 10° WNW 23:33:22 27° W 23:33:22 27° W
STARLINK-1191 4.2 23:32:56 10° WNW 23:34:47 30° W 23:34:47 30° W
Cosmos 1626 3.6 23:36:00 25° E 23:36:18 25° E 23:39:24 10° NNE
STARLINK-1221 4.3 23:33:53 10° WNW 23:35:42 29° W 23:35:42 29° W
Cosmos 1340 Rocket 3.2 23:33:19 10° NNW 23:37:17 52° W 23:38:06 44° SW
Cosmos 2369 Rocket 3.6 23:32:17 10° WSW 23:37:27 35° NW 23:42:37 10° NNE
ATLAS CENTAUR R/B 1.5 23:35:43 34° SW 23:37:32 76° NW 23:41:39 10° NE
STARLINK-1222 4.3 23:34:44 10° WNW 23:36:30 28° W 23:36:30 28° W
Cosmos 2227 Rocket 3.8 23:33:11 10° NNW 23:38:09 30° NE 23:43:05 10° ESE
STARLINK-1214 4.4 23:35:38 10° WNW 23:37:23 28° W 23:37:23 28° W
STARLINK-1197 3.7 23:35:01 10° WNW 23:39:10 75° NNE 23:41:21 27° ESE
Cosmos 1025 Rocket 4.4 23:39:50 22° WSW 23:41:50 32° WNW 23:45:45 10° N
Cosmos 1908 3.0 23:38:05 10° N 23:41:56 89° E 23:42:29 64° SSE
STARLINK-1198 3.6 23:39:58 10° WNW 23:44:08 79° NNE 23:46:07 30° ESE
Aureole 3 3.1 23:41:32 10° NNW 23:44:31 51° W 23:44:31 51° W
Cosmos 1953 3.3 23:41:55 10° NNW 23:45:34 34° W 23:46:22 31° WSW
SL-4 R/B 3.3 23:50:08 16° NW 23:50:08 16° NW 23:50:51 10° NW
STARLINK-1199 3.6 23:44:59 10° WNW 23:49:09 83° NNE 23:50:55 33° ESE
Cosmos 1656 Rocket 4.4 23:46:09 16° SW 23:50:26 49° WNW 23:55:50 10° NNE
Landsat 4 4.0 23:47:06 10° NNE 23:50:43 49° E 23:51:00 48° ESE
KORONAS-FOTON 3.7 23:52:25 61° SSW 23:53:01 80° WNW 23:56:52 10° N
STARLINK-1210 3.5 23:49:57 10° WNW 23:54:07 88° NNE 23:55:42 37° ESE
